Time,TemperatureF,DewpointF,PressureIn,WindDirection,WindDirectionDegrees,WindSpeedMPH,WindSpeedGustMPH,Humidity,HourlyPrecipIn,Conditions,Clouds,dailyrainin,SoftwareType,DateUTC
2013-01-09 00:00:00,41.5,32.1,30.21,South,177,1.3,2.3,69,0.00,CLR,,0.00,WeatherDisplay:10.37,2013-01-09 05:00:00,
2013-01-09 00:01:00,41.5,32.1,30.21,South,177,1.3,2.3,69,0.00,CLR,,0.00,WeatherDisplay:10.37,2013-01-09 05:01:00,
2013-01-09 00:02:00,41.5,32.1,30.21,South,177,1.3,1.3,69,0.00,CLR,,0.00,WeatherDisplay:10.37,2013-01-09 05:02:00,
2013-01-09 00:03:00,41.5,32.1,30.21,South,177,1.3,1.3,69,0.00,CLR,,0.00,WeatherDisplay:10.37,2013-01-09 05:03:00,
2013-01-09 00:08:00,41.5,31.8,30.21,SW,222,5.4,5.8,68,0.00,CLR,,0.00,WeatherDisplay:10.37,2013-01-09 05:08:00,
2013-01-09 00:13:00,41.5,31.8,30.21,SW,222,5.4,0.0,68,0.00,CLR,,0.00,WeatherDisplay:10.37,2013-01-09 05:13:00,
2013-01-09 00:18:00,41.5,31.8,30.21,South,177,0.6,0.0,68,0.00,CLR,,0.00,WeatherDisplay:10.37,2013-01-09 05:18:00,
2013-01-09 00:23:00,41.5,31.8,30.21,South,177,0.6,0.0,68,0.00,CLR,,0.00,WeatherDisplay:10.37,2013-01-09 05:23:00,
2013-01-09 00:28:00,41.5,31.8,30.21,South,177,0.6,0.0,68,0.00,CLR,,0.00,WeatherDisplay:10.37,2013-01-09 05:28:00,
2013-01-09 00:33:00,41.7,32.3,30.21,South,177,0.0,1.6,69,0.00,CLR,,0.00,WeatherDisplay:10.37,2013-01-09 05:33:00,
2013-01-09 00:38:00,41.7,32.3,30.22,South,177,0.2,1.1,69,0.00,CLR,,0.00,WeatherDisplay:10.37,2013-01-09 05:38:00,
2013-01-09 00:43:00,41.7,32.3,30.22,SSW,199,1.6,0.0,69,0.00,CLR,,0.00,WeatherDisplay:10.37,2013-01-09 05:43:00,
2013-01-09 00:48:00,41.7,32.3,30.22,SSW,199,1.6,0.0,69,0.00,CLR,,0.00,WeatherDisplay:10.37,2013-01-09 05:48:00,
2013-01-09 00:53:00,41.7,32.3,30.22,SSE,155,0.0,2.3,69,0.00,CLR,,0.00,WeatherDisplay:10.37,2013-01-09 05:53:00,
2013-01-09 00:58:00,41.7,32.3,30.22,SSE,155,0.0,2.3,69,0.00,CLR,,0.00,WeatherDisplay:10.37,2013-01-09 05:58:00,
2013-01-09 01:03:00,42.1,32.6,30.22,SSW,199,3.1,3.5,69,0.00,CLR,,0.00,WeatherDisplay:10.37,2013-01-09 06:03:00,
2013-01-09 01:08:00,42.1,32.6,30.22,SW,222,0.0,3.5,69,0.00,OVC,,0.00,WeatherDisplay:10.37,2013-01-09 06:08:00,
2013-01-09 01:13:00,42.4,33.0,30.22,SW,222,0.0,3.5,69,0.00,OVC,,0.00,WeatherDisplay:10.37,2013-01-09 06:13:00,
2013-01-09 01:18:00,42.4,33.0,30.22,SW,222,0.0,3.5,69,0.00,OVC,,0.00,WeatherDisplay:10.37,2013-01-09 06:18:00,
2013-01-09 01:23:00,42.4,33.0,30.23,SSE,155,3.6,4.6,69,0.00,OVC,,0.00,WeatherDisplay:10.37,2013-01-09 06:23:00,
2013-01-09 01:28:00,42.4,33.0,30.23,SSE,155,3.6,4.6,69,0.00,OVC,,0.00,WeatherDisplay:10.37,2013-01-09 06:28:00,
2013-01-09 01:33:00,42.4,33.0,30.24,SW,222,2.5,2.5,69,0.00,OVC,,0.00,WeatherDisplay:10.37,2013-01-09 06:33:00,
2013-01-09 01:38:00,42.6,33.2,30.24,South,177,2.5,3.5,69,0.00,OVC,,0.00,WeatherDisplay:10.37,2013-01-09 06:38:00,
2013-01-09 01:43:00,42.6,33.2,30.24,South,177,2.5,3.5,69,0.00,OVC,,0.00,WeatherDisplay:10.37,2013-01-09 06:43:00,
2013-01-09 01:48:00,42.6,33.2,30.24,South,177,2.5,3.5,69,0.00,OVC,,0.00,WeatherDisplay:10.37,2013-01-09 06:48:00,
2013-01-09 01:53:00,42.6,33.2,30.24,South,177,2.5,3.5,69,0.00,OVC,,0.00,WeatherDisplay:10.37,2013-01-09 06:53:00,
2013-01-09 01:58:00,42.6,33.2,30.24,South,177,2.5,3.5,69,0.00,OVC,,0.00,WeatherDisplay:10.37,2013-01-09 06:58:00,
2013-01-09 02:03:00,42.6,33.2,30.24,SW,222,2.5,3.5,69,0.00,OVC,,0.00,WeatherDisplay:10.37,2013-01-09 07:03:00,
2013-01-09 02:08:00,42.6,33.5,30.24,SSE,155,3.0,3.5,70,0.00,OVC,,0.00,WeatherDisplay:10.37,2013-01-09 07:08:00,
2013-01-09 02:13:00,42.6,33.5,30.24,South,177,4.3,4.6,70,0.00,OVC,,0.00,WeatherDisplay:10.37,2013-01-09 07:13:00,
2013-01-09 02:18:00,42.6,33.5,30.24,SSE,155,2.8,3.5,70,0.00,OVC,,0.00,WeatherDisplay:10.37,2013-01-09 07:18:00,
2013-01-09 02:23:00,42.6,33.5,30.24,SW,222,1.9,2.3,70,0.00,OVC,,0.00,WeatherDisplay:10.37,2013-01-09 07:23:00,
2013-01-09 02:28:00,42.6,33.5,30.24,South,177,3.0,4.6,70,0.00,OVC,,0.00,WeatherDisplay:10.37,2013-01-09 07:28:00,
2013-01-09 02:33:00,43.2,34.0,30.25,SSE,155,2.7,2.7,70,0.00,OVC,,0.00,WeatherDisplay:10.37,2013-01-09 07:33:00,
2013-01-09 02:38:00,43.2,34.0,30.25,South,177,3.1,3.5,70,0.00,OVC,,0.00,WeatherDisplay:10.37,2013-01-09 07:38:00,
2013-01-09 02:43:00,43.2,34.0,30.25,WSW,245,0.4,1.1,70,0.00,OVC,,0.00,WeatherDisplay:10.37,2013-01-09 07:43:00,
2013-01-09 02:48:00,43.2,34.0,30.25,SSW,199,3.6,3.6,70,0.00,OVC,,0.00,WeatherDisplay:10.37,2013-01-09 07:48:00,
2013-01-09 02:53:00,43.3,34.2,30.26,WSW,245,3.8,3.8,70,0.00,OVC,,0.00,WeatherDisplay:10.37,2013-01-09 07:53:00,
2013-01-09 02:58:00,43.3,34.2,30.26,SW,222,2.1,2.3,70,0.00,OVC,,0.00,WeatherDisplay:10.37,2013-01-09 07:58:00,
2013-01-09 03:03:00,43.3,34.2,30.26,SSW,199,2.9,3.5,70,0.00,OVC,,0.00,WeatherDisplay:10.37,2013-01-09 08:03:00,
2013-01-09 03:08:00,43.3,34.2,30.26,SW,222,4.0,6.9,70,0.00,OVC,,0.00,WeatherDisplay:10.37,2013-01-09 08:08:00,
2013-01-09 03:13:00,43.5,34.7,30.26,SSW,199,3.1,3.5,71,0.00,OVC,,0.00,WeatherDisplay:10.37,2013-01-09 08:13:00,
2013-01-09 03:18:00,43.5,34.4,30.27,South,177,3.0,3.5,70,0.00,OVC,,0.00,WeatherDisplay:10.37,2013-01-09 08:18:00,
2013-01-09 03:23:00,43.5,34.4,30.26,South,177,3.7,3.7,70,0.00,OVC,,0.00,WeatherDisplay:10.37,2013-01-09 08:23:00,
2013-01-09 03:28:00,43.5,34.4,30.26,South,177,2.9,0.0,70,0.00,OVC,,0.00,WeatherDisplay:10.37,2013-01-09 08:28:00,
2013-01-09 03:33:00,43.5,34.4,30.26,SW,222,2.2,2.3,70,0.00,OVC,,0.00,WeatherDisplay:10.37,2013-01-09 08:33:00,
2013-01-09 03:38:00,43.7,34.9,30.27,SW,222,1.9,2.3,71,0.00,OVC,,0.00,WeatherDisplay:10.37,2013-01-09 08:38:00,
2013-01-09 03:43:00,43.5,34.4,30.27,WSW,245,3.1,3.5,70,0.00,OVC,,0.00,WeatherDisplay:10.37,2013-01-09 08:43:00,
2013-01-09 03:48:00,43.5,34.4,30.27,WSW,245,2.7,2.7,70,0.00,OVC,,0.00,WeatherDisplay:10.37,2013-01-09 08:48:00,
2013-01-09 03:53:00,43.5,34.4,30.27,SW,222,3.9,3.9,70,0.00,OVC,,0.00,WeatherDisplay:10.37,2013-01-09 08:53:00,
2013-01-09 03:58:00,43.5,34.7,30.27,SW,222,0.0,0.0,71,0.00,OVC,,0.00,WeatherDisplay:10.37,2013-01-09 08:58:00,
2013-01-09 04:03:00,43.5,34.4,30.27,WSW,245,2.0,2.3,70,0.00,OVC,,0.00,WeatherDisplay:10.37,2013-01-09 09:03:00,
2013-01-09 04:08:00,43.5,34.7,30.27,SSW,199,2.5,3.5,71,0.00,OVC,,0.00,WeatherDisplay:10.37,2013-01-09 09:08:00,
2013-01-09 04:13:00,43.7,34.9,30.27,SW,222,2.1,2.3,71,0.00,OVC,,0.00,WeatherDisplay:10.37,2013-01-09 09:13:00,
2013-01-09 04:18:00,43.7,34.9,30.27,SSE,155,3.6,3.6,71,0.00,OVC,,0.00,WeatherDisplay:10.37,2013-01-09 09:18:00,
2013-01-09 04:23:00,43.7,34.9,30.27,SW,222,1.9,2.3,71,0.00,OVC,,0.00,WeatherDisplay:10.37,2013-01-09 09:23:00,
2013-01-09 04:28:00,43.9,35.1,30.27,West,267,2.9,3.5,71,0.00,OVC,,0.00,WeatherDisplay:10.37,2013-01-09 09:28:00,
2013-01-09 04:33:00,44.1,35.3,30.27,SSW,199,1.6,1.6,71,0.00,OVC,,0.00,WeatherDisplay:10.37,2013-01-09 09:33:00,
2013-01-09 04:38:00,44.2,35.4,30.27,SW,222,5.1,5.1,71,0.00,OVC,,0.00,WeatherDisplay:10.37,2013-01-09 09:38:00,
2013-01-09 04:43:00,44.2,35.4,30.27,SSW,199,3.4,3.4,71,0.00,OVC,,0.00,WeatherDisplay:10.37,2013-01-09 09:43:00,
2013-01-09 04:48:00,44.2,35.4,30.27,SSW,199,3.8,3.8,71,0.00,OVC,,0.00,WeatherDisplay:10.37,2013-01-09 09:48:00,
2013-01-09 04:53:00,44.4,35.6,30.27,SSW,199,0.0,4.6,71,0.00,OVC,,0.00,WeatherDisplay:10.37,2013-01-09 09:53:00,
2013-01-09 04:58:00,44.4,35.6,30.27,SW,222,4.1,4.6,71,0.00,OVC,,0.00,WeatherDisplay:10.37,2013-01-09 09:58:00,
2013-01-09 05:03:00,44.4,35.6,30.27,SSW,199,3.5,3.5,71,0.00,OVC,,0.00,WeatherDisplay:10.37,2013-01-09 10:03:00,
2013-01-09 05:08:00,44.4,35.6,30.26,SSE,155,2.5,5.8,71,0.00,OVC,,0.00,WeatherDisplay:10.37,2013-01-09 10:08:00,
2013-01-09 05:13:00,44.4,35.6,30.26,SSW,199,3.4,3.5,71,0.00,OVC,,0.00,WeatherDisplay:10.37,2013-01-09 10:13:00,
2013-01-09 05:18:00,44.4,35.6,30.26,South,177,2.8,3.5,71,0.00,OVC,,0.00,WeatherDisplay:10.37,2013-01-09 10:18:00,
2013-01-09 05:23:00,44.6,36.1,30.25,SSW,199,2.7,3.5,72,0.00,OVC,,0.00,WeatherDisplay:10.37,2013-01-09 10:23:00,
2013-01-09 05:28:00,44.6,36.1,30.26,SSW,199,0.0,0.0,72,0.00,OVC,,0.00,WeatherDisplay:10.37,2013-01-09 10:28:00,
2013-01-09 05:33:00,44.6,36.1,30.26,SSW,199,2.6,5.1,72,0.00,OVC,,0.00,WeatherDisplay:10.37,2013-01-09 10:33:00,
2013-01-09 05:38:00,44.6,35.8,30.27,SW,222,3.7,3.7,71,0.00,OVC,,0.00,WeatherDisplay:10.37,2013-01-09 10:38:00,
2013-01-09 05:43:00,44.8,36.3,30.26,SSW,199,1.8,2.3,72,0.00,OVC,,0.00,WeatherDisplay:10.37,2013-01-09 10:43:00,
2013-01-09 05:48:00,44.8,36.3,30.26,SSW,199,2.9,3.5,72,0.00,OVC,,0.00,WeatherDisplay:10.37,2013-01-09 10:48:00,
2013-01-09 05:53:00,44.8,36.3,30.26,WNW,289,2.4,2.4,72,0.00,OVC,,0.00,WeatherDisplay:10.37,2013-01-09 10:53:00,
2013-01-09 05:58:00,45.0,36.5,30.26,SW,222,0.0,3.5,72,0.00,OVC,,0.00,WeatherDisplay:10.37,2013-01-09 10:58:00,
2013-01-09 06:03:00,45.0,36.5,30.26,South,177,2.9,3.5,72,0.00,OVC,,0.00,WeatherDisplay:10.37,2013-01-09 11:03:00,
2013-01-09 06:08:00,45.0,36.5,30.26,SW,222,3.1,3.5,72,0.00,OVC,,0.00,WeatherDisplay:10.37,2013-01-09 11:08:00,
2013-01-09 06:13:00,45.0,36.5,30.26,WSW,245,1.0,1.1,72,0.00,OVC,,0.00,WeatherDisplay:10.37,2013-01-09 11:13:00,
2013-01-09 06:18:00,45.0,36.5,30.27,SW,222,1.8,2.3,72,0.00,OVC,,0.00,WeatherDisplay:10.37,2013-01-09 11:18:00,
2013-01-09 06:23:00,45.0,36.5,30.27,SSW,199,0.2,1.1,72,0.00,OVC,,0.00,WeatherDisplay:10.37,2013-01-09 11:23:00,
2013-01-09 06:28:00,45.0,36.5,30.27,SW,222,0.9,1.1,72,0.00,OVC,,0.00,WeatherDisplay:10.37,2013-01-09 11:28:00,
2013-01-09 06:33:00,45.0,36.5,30.27,WSW,245,1.8,0.0,72,0.00,OVC,,0.00,WeatherDisplay:10.37,2013-01-09 11:33:00,
2013-01-09 06:38:00,45.1,36.6,30.27,South,177,3.1,3.5,72,0.00,OVC,,0.00,WeatherDisplay:10.37,2013-01-09 11:38:00,
2013-01-09 06:43:00,45.3,37.2,30.27,SW,222,6.9,6.9,73,0.00,OVC,,0.00,WeatherDisplay:10.37,2013-01-09 11:43:00,
2013-01-09 06:48:00,45.5,37.3,30.28,WSW,245,5.1,5.1,73,0.00,OVC,,0.00,WeatherDisplay:10.37,2013-01-09 11:48:00,
2013-01-09 06:53:00,45.7,37.5,30.27,SW,222,3.6,3.6,73,0.00,OVC,,0.00,WeatherDisplay:10.37,2013-01-09 11:53:00,
2013-01-09 06:58:00,46.0,37.9,30.28,South,177,0.4,0.0,73,0.00,OVC,,0.00,WeatherDisplay:10.37,2013-01-09 11:58:00,
2013-01-09 07:03:00,46.0,37.9,30.28,SW,222,1.5,2.3,73,0.00,OVC,,0.00,WeatherDisplay:10.37,2013-01-09 12:03:00,
2013-01-09 07:08:00,46.0,37.9,30.29,WSW,245,2.0,4.6,73,0.00,OVC,,0.00,WeatherDisplay:10.37,2013-01-09 12:08:00,
2013-01-09 07:13:00,46.2,38.0,30.29,WNW,289,1.1,1.1,73,0.00,OVC,,0.00,WeatherDisplay:10.37,2013-01-09 12:13:00,
2013-01-09 07:18:00,46.2,38.0,30.29,SW,222,1.1,1.1,73,0.00,OVC,,0.00,WeatherDisplay:10.37,2013-01-09 12:18:00,
2013-01-09 07:23:00,46.2,38.0,30.29,WSW,245,1.1,1.1,73,0.00,OVC,,0.00,WeatherDisplay:10.37,2013-01-09 12:23:00,
2013-01-09 07:28:00,46.4,38.2,30.29,West,267,0.0,0.0,73,0.00,OVC,,0.00,WeatherDisplay:10.37,2013-01-09 12:28:00,
2013-01-09 07:33:00,46.6,38.7,30.29,WSW,245,0.0,0.0,74,0.00,OVC,,0.00,WeatherDisplay:10.37,2013-01-09 12:33:00,
2013-01-09 07:38:00,46.6,38.7,30.31,WSW,245,0.0,0.0,74,0.00,OVC,,0.00,WeatherDisplay:10.37,2013-01-09 12:38:00,
2013-01-09 07:43:00,46.6,38.4,30.30,WSW,245,0.0,0.0,73,0.00,OVC,,0.00,WeatherDisplay:10.37,2013-01-09 12:43:00,
2013-01-09 07:48:00,46.6,38.4,30.31,WSW,245,2.0,2.3,73,0.00,OVC,,0.00,WeatherDisplay:10.37,2013-01-09 12:48:00,
2013-01-09 07:53:00,46.6,38.7,30.31,WSW,245,0.0,0.0,74,0.00,OVC,,0.00,WeatherDisplay:10.37,2013-01-09 12:53:00,
2013-01-09 07:58:00,46.6,38.7,30.31,WSW,245,0.3,0.0,74,0.00,OVC,,0.00,WeatherDisplay:10.37,2013-01-09 12:58:00,
2013-01-09 08:03:00,46.6,38.7,30.32,WSW,245,3.1,3.5,74,0.00,OVC,,0.00,WeatherDisplay:10.37,2013-01-09 13:03:00,
2013-01-09 08:08:00,46.6,38.7,30.32,WSW,245,0.0,0.0,74,0.00,OVC,,0.00,WeatherDisplay:10.37,2013-01-09 13:08:00,
2013-01-09 08:13:00,46.6,39.1,30.34,WSW,245,0.0,0.0,75,0.00,OVC,,0.00,WeatherDisplay:10.37,2013-01-09 13:13:00,
2013-01-09 08:18:00,46.8,39.6,30.34,WSW,245,0.0,0.0,76,0.00,OVC,,0.00,WeatherDisplay:10.37,2013-01-09 13:18:00,
2013-01-09 08:23:00,46.8,39.6,30.34,SW,222,2.6,3.5,76,0.00,OVC,,0.00,WeatherDisplay:10.37,2013-01-09 13:23:00,
2013-01-09 08:28:00,46.8,39.6,30.35,WSW,245,4.0,4.0,76,0.00,OVC,,0.00,WeatherDisplay:10.37,2013-01-09 13:28:00,
2013-01-09 08:33:00,46.9,39.8,30.35,West,267,4.0,4.0,76,0.00,OVC,,0.00,WeatherDisplay:10.37,2013-01-09 13:33:00,
2013-01-09 08:38:00,46.9,39.8,30.36,West,267,1.7,2.3,76,0.00,OVC,,0.00,WeatherDisplay:10.37,2013-01-09 13:38:00,
2013-01-09 08:43:00,46.9,39.8,30.37,SW,222,0.0,0.0,76,0.00,OVC,,0.00,WeatherDisplay:10.37,2013-01-09 13:43:00,
2013-01-09 08:48:00,46.9,39.8,30.37,WSW,245,3.1,3.5,76,0.00,OVC,,0.00,WeatherDisplay:10.37,2013-01-09 13:48:00,
2013-01-09 08:53:00,46.9,39.8,30.37,West,267,0.1,2.3,76,0.00,OVC,,0.00,WeatherDisplay:10.37,2013-01-09 13:53:00,
2013-01-09 08:58:00,46.9,39.8,30.37,West,267,0.0,0.0,76,0.00,OVC,,0.00,WeatherDisplay:10.37,2013-01-09 13:58:00,
2013-01-09 09:03:00,46.9,39.8,30.37,WNW,289,0.0,1.3,76,0.00,OVC,,0.00,WeatherDisplay:10.37,2013-01-09 14:03:00,
2013-01-09 09:08:00,46.9,39.8,30.37,NW,312,2.8,3.5,76,0.00,OVC,,0.00,WeatherDisplay:10.37,2013-01-09 14:08:00,
2013-01-09 09:13:00,47.1,39.9,30.37,NNW,335,6.3,6.3,76,0.00,OVC,,0.00,WeatherDisplay:10.37,2013-01-09 14:13:00,
2013-01-09 09:18:00,47.1,39.6,30.38,NW,312,3.6,3.6,75,0.00,OVC,,0.00,WeatherDisplay:10.37,2013-01-09 14:18:00,
2013-01-09 09:23:00,47.1,39.6,30.38,West,267,2.9,3.5,75,0.00,OVC,,0.00,WeatherDisplay:10.37,2013-01-09 14:23:00,
2013-01-09 09:28:00,47.1,39.6,30.38,NW,312,0.8,1.1,75,0.00,OVC,,0.00,WeatherDisplay:10.37,2013-01-09 14:28:00,
2013-01-09 09:33:00,47.1,39.6,30.38,NW,312,0.9,3.5,75,0.00,OVC,,0.00,WeatherDisplay:10.37,2013-01-09 14:33:00,
2013-01-09 09:38:00,47.1,39.6,30.38,WNW,289,0.0,0.0,75,0.00,OVC,,0.00,WeatherDisplay:10.37,2013-01-09 14:38:00,
2013-01-09 09:43:00,46.9,39.1,30.37,WSW,245,0.0,0.0,74,0.00,OVC,,0.00,WeatherDisplay:10.37,2013-01-09 14:43:00,
2013-01-09 09:48:00,47.1,39.3,30.37,WSW,245,0.0,0.0,74,0.00,OVC,,0.00,WeatherDisplay:10.37,2013-01-09 14:48:00,
2013-01-09 09:53:00,46.9,39.1,30.38,WSW,245,0.0,0.0,74,0.00,OVC,,0.00,WeatherDisplay:10.37,2013-01-09 14:53:00,
2013-01-09 09:58:00,46.9,39.1,30.38,South,177,0.0,0.0,74,0.00,OVC,,0.00,WeatherDisplay:10.37,2013-01-09 14:58:00,
2013-01-09 10:03:00,46.9,39.1,30.37,SSE,155,0.0,0.0,74,0.00,OVC,,0.00,WeatherDisplay:10.37,2013-01-09 15:03:00,
2013-01-09 10:08:00,46.9,39.1,30.38,SSE,155,0.0,0.0,74,0.00,-RA,,0.00,WeatherDisplay:10.37,2013-01-09 15:08:00,
2013-01-09 10:13:00,46.9,39.1,30.38,South,177,0.0,0.0,74,0.00,-RA,,0.00,WeatherDisplay:10.37,2013-01-09 15:13:00,
2013-01-09 10:18:00,46.9,39.1,30.38,SW,222,0.0,0.0,74,0.00,-RA,,0.00,WeatherDisplay:10.37,2013-01-09 15:18:00,
2013-01-09 10:23:00,46.9,39.1,30.39,WSW,245,0.4,1.1,74,0.00,-RA,,0.00,WeatherDisplay:10.37,2013-01-09 15:23:00,
2013-01-09 10:28:00,46.9,39.4,30.40,WSW,245,0.0,0.0,75,0.00,-RA,,0.00,WeatherDisplay:10.37,2013-01-09 15:28:00,
2013-01-09 10:33:00,46.9,39.4,30.40,SW,222,0.0,0.0,75,0.00,-RA,,0.00,WeatherDisplay:10.37,2013-01-09 15:33:00,
2013-01-09 10:38:00,47.1,39.6,30.39,West,267,0.0,0.0,75,0.00,-RA,,0.00,WeatherDisplay:10.37,2013-01-09 15:38:00,
2013-01-09 10:43:00,47.1,39.9,30.40,NW,312,0.0,0.0,76,0.00,-RA,,0.00,WeatherDisplay:10.37,2013-01-09 15:43:00,
2013-01-09 10:48:00,47.3,40.1,30.40,WNW,289,0.0,0.0,76,0.00,-RA,,0.00,WeatherDisplay:10.37,2013-01-09 15:48:00,
2013-01-09 10:53:00,47.5,40.6,30.40,WNW,289,0.0,0.0,77,0.00,-RA,,0.00,WeatherDisplay:10.37,2013-01-09 15:53:00,
2013-01-09 10:58:00,47.8,41.0,30.40,SW,222,0.0,0.0,77,0.00,-RA,,0.00,WeatherDisplay:10.37,2013-01-09 15:58:00,
2013-01-09 11:03:00,48.0,41.2,30.40,SW,222,0.0,0.0,77,0.00,-RA,,0.00,WeatherDisplay:10.37,2013-01-09 16:03:00,
2013-01-09 11:08:00,48.4,41.5,30.41,NW,312,1.1,1.1,77,0.00,-RA,,0.00,WeatherDisplay:10.37,2013-01-09 16:08:00,
2013-01-09 11:13:00,48.4,41.5,30.41,WSW,245,0.0,0.0,77,0.00,-RA,,0.00,WeatherDisplay:10.37,2013-01-09 16:13:00,
2013-01-09 11:18:00,48.7,41.8,30.40,WSW,245,0.0,0.0,77,0.00,-RA,,0.00,WeatherDisplay:10.37,2013-01-09 16:18:00,
2013-01-09 11:23:00,48.7,42.2,30.41,SSE,155,2.0,2.5,78,0.00,-RA,,0.00,WeatherDisplay:10.37,2013-01-09 16:23:00,
2013-01-09 11:28:00,48.9,42.4,30.40,South,177,0.0,0.0,78,0.00,-RA,,0.00,WeatherDisplay:10.37,2013-01-09 16:28:00,
2013-01-09 11:33:00,49.3,42.7,30.40,SSW,199,0.1,2.7,78,0.00,-RA,,0.00,WeatherDisplay:10.37,2013-01-09 16:33:00,
2013-01-09 11:38:00,49.6,43.1,30.39,South,177,1.6,3.5,78,0.00,-RA,,0.00,WeatherDisplay:10.37,2013-01-09 16:38:00,
2013-01-09 11:43:00,49.8,43.2,30.39,SSE,155,0.8,0.0,78,0.00,-RA,,0.00,WeatherDisplay:10.37,2013-01-09 16:43:00,
2013-01-09 11:48:00,50.4,43.4,30.39,South,177,1.4,2.5,77,0.00,-RA,,0.00,WeatherDisplay:10.37,2013-01-09 16:48:00,
2013-01-09 11:53:00,50.5,43.6,30.38,SSW,199,0.9,1.1,77,0.00,-RA,,0.00,WeatherDisplay:10.37,2013-01-09 16:53:00,
2013-01-09 11:58:00,50.7,43.4,30.38,SW,222,3.4,3.5,76,0.00,-RA,,0.00,WeatherDisplay:10.37,2013-01-09 16:58:00,
2013-01-09 12:03:00,51.4,44.1,30.38,South,177,3.5,3.8,76,0.00,-RA,,0.00,WeatherDisplay:10.37,2013-01-09 17:03:00,
2013-01-09 12:08:00,51.6,44.3,30.37,SSW,199,2.1,4.6,76,0.00,BKN,,0.00,WeatherDisplay:10.37,2013-01-09 17:08:00,
2013-01-09 12:13:00,52.3,44.6,30.37,SW,222,4.2,4.6,75,0.00,BKN,,0.00,WeatherDisplay:10.37,2013-01-09 17:13:00,
2013-01-09 12:18:00,52.7,44.6,30.37,South,177,1.3,3.8,74,0.00,BKN,,0.00,WeatherDisplay:10.37,2013-01-09 17:18:00,
2013-01-09 12:23:00,52.9,44.8,30.37,SSW,199,0.0,5.8,74,0.00,BKN,,0.00,WeatherDisplay:10.37,2013-01-09 17:23:00,
2013-01-09 12:28:00,53.2,45.2,30.36,WSW,245,3.1,3.5,74,0.00,BKN,,0.00,WeatherDisplay:10.37,2013-01-09 17:28:00,
2013-01-09 12:33:00,53.8,45.3,30.36,SW,222,4.8,4.8,73,0.00,BKN,,0.00,WeatherDisplay:10.37,2013-01-09 17:33:00,
2013-01-09 12:38:00,54.1,45.3,30.35,SSW,199,1.6,3.5,72,0.00,BKN,,0.00,WeatherDisplay:10.37,2013-01-09 17:38:00,
2013-01-09 12:43:00,54.5,45.7,30.35,South,177,0.0,0.0,72,0.00,BKN,,0.00,WeatherDisplay:10.37,2013-01-09 17:43:00,
2013-01-09 12:48:00,54.9,45.6,30.34,SE,132,0.1,1.1,71,0.00,BKN,,0.00,WeatherDisplay:10.37,2013-01-09 17:48:00,
2013-01-09 12:53:00,55.0,45.8,30.35,SSE,155,0.0,0.0,71,0.00,BKN,,0.00,WeatherDisplay:10.37,2013-01-09 17:53:00,
2013-01-09 12:58:00,55.0,45.4,30.34,SSW,199,4.7,4.7,70,0.00,BKN,,0.00,WeatherDisplay:10.37,2013-01-09 17:58:00,
2013-01-09 13:03:00,55.2,45.6,30.35,SSW,199,0.5,2.3,70,0.00,BKN,,0.00,WeatherDisplay:10.37,2013-01-09 18:03:00,
2013-01-09 13:08:00,55.8,46.1,30.34,SW,222,1.2,3.5,70,0.00,BKN,,0.00,WeatherDisplay:10.37,2013-01-09 18:08:00,
2013-01-09 13:13:00,55.9,46.3,30.35,South,177,2.9,3.5,70,0.00,BKN,,0.00,WeatherDisplay:10.37,2013-01-09 18:13:00,
2013-01-09 13:18:00,55.9,45.9,30.35,West,267,3.6,3.6,69,0.00,BKN,,0.00,WeatherDisplay:10.37,2013-01-09 18:18:00,
2013-01-09 13:23:00,55.8,45.4,30.36,West,267,1.1,1.1,68,0.00,BKN,,0.00,WeatherDisplay:10.37,2013-01-09 18:23:00,
2013-01-09 13:28:00,55.2,45.2,30.36,WNW,289,2.9,3.5,69,0.00,BKN,,0.00,WeatherDisplay:10.37,2013-01-09 18:28:00,
2013-01-09 13:33:00,54.9,44.9,30.36,West,267,2.2,2.3,69,0.00,BKN,,0.00,WeatherDisplay:10.37,2013-01-09 18:33:00,
2013-01-09 13:38:00,54.3,44.4,30.36,WSW,245,0.0,2.3,69,0.00,BKN,,0.00,WeatherDisplay:10.37,2013-01-09 18:38:00,
2013-01-09 13:41:00,54.1,44.2,30.36,WNW,289,2.5,2.5,69,0.00,BKN,,0.00,WeatherDisplay:10.37,2013-01-09 18:41:00,
2013-01-09 13:44:00,53.8,43.8,30.36,SSW,199,0.0,0.0,69,0.00,BKN,,0.00,WeatherDisplay:10.37,2013-01-09 18:44:00,
2013-01-09 13:45:00,53.8,43.8,30.36,SSW,199,0.0,0.0,69,0.00,BKN,,0.00,WeatherDisplay:10.37,2013-01-09 18:45:00,
2013-01-09 13:48:00,53.8,44.2,30.36,SW,222,0.0,0.0,70,0.00,BKN,,0.00,WeatherDisplay:10.37,2013-01-09 18:48:00,
2013-01-09 13:53:00,54.0,44.8,30.35,South,177,0.9,2.3,71,0.00,BKN,,0.00,WeatherDisplay:10.37,2013-01-09 18:53:00,
2013-01-09 13:58:00,55.0,45.8,30.35,WSW,245,5.1,5.1,71,0.00,BKN,,0.00,WeatherDisplay:10.37,2013-01-09 18:58:00,
2013-01-09 14:03:00,56.1,46.5,30.35,SW,222,0.0,0.0,70,0.00,BKN,,0.00,WeatherDisplay:10.37,2013-01-09 19:03:00,
2013-01-09 14:08:00,56.5,46.4,30.34,SW,222,4.9,4.9,69,0.00,BKN,,0.00,WeatherDisplay:10.37,2013-01-09 19:08:00,
2013-01-09 14:13:00,57.0,46.6,30.35,SE,132,1.1,1.1,68,0.00,BKN,,0.00,WeatherDisplay:10.37,2013-01-09 19:13:00,
2013-01-09 14:18:00,57.2,46.3,30.34,WSW,245,1.4,2.3,67,0.00,BKN,,0.00,WeatherDisplay:10.37,2013-01-09 19:18:00,
2013-01-09 14:23:00,57.6,46.7,30.34,West,267,0.0,0.0,67,0.00,BKN,,0.00,WeatherDisplay:10.37,2013-01-09 19:23:00,
2013-01-09 14:28:00,57.7,46.5,30.34,WNW,289,0.0,0.0,66,0.00,BKN,,0.00,WeatherDisplay:10.37,2013-01-09 19:28:00,
2013-01-09 14:33:00,57.7,46.9,30.34,SW,222,2.1,2.1,67,0.00,BKN,,0.00,WeatherDisplay:10.37,2013-01-09 19:33:00,
2013-01-09 14:38:00,58.3,47.0,30.34,WNW,289,0.0,1.1,66,0.00,BKN,,0.00,WeatherDisplay:10.37,2013-01-09 19:38:00,
2013-01-09 14:43:00,58.8,47.5,30.34,WSW,245,4.7,4.7,66,0.00,BKN,,0.00,WeatherDisplay:10.37,2013-01-09 19:43:00,
2013-01-09 14:48:00,58.8,46.7,30.34,NW,312,0.0,0.0,64,0.00,BKN,,0.00,WeatherDisplay:10.37,2013-01-09 19:48:00,
2013-01-09 14:53:00,58.5,46.3,30.35,SSE,155,0.0,0.0,64,0.00,BKN,,0.00,WeatherDisplay:10.37,2013-01-09 19:53:00,
2013-01-09 14:58:00,58.3,46.2,30.35,South,177,3.1,3.5,64,0.00,BKN,,0.00,WeatherDisplay:10.37,2013-01-09 19:58:00,
2013-01-09 15:03:00,58.6,46.9,30.35,West,267,1.6,1.6,65,0.00,BKN,,0.00,WeatherDisplay:10.37,2013-01-09 20:03:00,
2013-01-09 15:08:00,58.6,46.5,30.35,NNW,335,0.0,0.0,64,0.00,CLR,,0.00,WeatherDisplay:10.37,2013-01-09 20:08:00,
2013-01-09 15:13:00,58.3,46.2,30.35,SSW,199,2.2,2.3,64,0.00,CLR,,0.00,WeatherDisplay:10.37,2013-01-09 20:13:00,
2013-01-09 15:18:00,58.8,46.7,30.36,West,267,0.0,0.0,64,0.00,CLR,,0.00,WeatherDisplay:10.37,2013-01-09 20:18:00,
2013-01-09 15:23:00,58.6,46.5,30.36,SSW,199,0.0,2.3,64,0.00,CLR,,0.00,WeatherDisplay:10.37,2013-01-09 20:23:00,
2013-01-09 15:28:00,58.3,46.2,30.37,NNW,335,3.6,3.6,64,0.00,CLR,,0.00,WeatherDisplay:10.37,2013-01-09 20:28:00,
2013-01-09 15:33:00,57.6,45.1,30.37,NW,312,0.0,0.0,63,0.00,CLR,,0.00,WeatherDisplay:10.37,2013-01-09 20:33:00,
2013-01-09 15:38:00,57.4,44.9,30.36,NNW,335,0.0,1.1,63,0.00,CLR,,0.00,WeatherDisplay:10.37,2013-01-09 20:38:00,
2013-01-09 15:43:00,56.8,44.4,30.37,West,267,0.9,1.6,63,0.00,CLR,,0.00,WeatherDisplay:10.37,2013-01-09 20:43:00,
2013-01-09 15:48:00,56.5,44.0,30.37,WNW,289,1.4,2.3,63,0.00,CLR,,0.00,WeatherDisplay:10.37,2013-01-09 20:48:00,
2013-01-09 15:53:00,56.5,44.4,30.37,NNW,335,3.1,3.1,64,0.00,CLR,,0.00,WeatherDisplay:10.37,2013-01-09 20:53:00,
2013-01-09 15:58:00,56.1,44.1,30.38,WNW,289,2.6,3.5,64,0.00,CLR,,0.00,WeatherDisplay:10.37,2013-01-09 20:58:00,
2013-01-09 16:03:00,55.9,43.9,30.38,NW,312,0.0,0.0,64,0.00,CLR,,0.00,WeatherDisplay:10.37,2013-01-09 21:03:00,
2013-01-09 16:08:00,55.9,43.9,30.38,NW,312,0.5,0.0,64,0.00,CLR,,0.00,WeatherDisplay:10.37,2013-01-09 21:08:00,
2013-01-09 16:13:00,55.9,44.3,30.38,WNW,289,0.0,0.0,65,0.00,CLR,,0.00,WeatherDisplay:10.37,2013-01-09 21:13:00,
2013-01-09 16:18:00,55.9,44.3,30.39,West,267,0.0,0.0,65,0.00,CLR,,0.00,WeatherDisplay:10.37,2013-01-09 21:18:00,
2013-01-09 16:23:00,55.9,44.3,30.39,West,267,0.0,0.0,65,0.00,CLR,,0.00,WeatherDisplay:10.37,2013-01-09 21:23:00,
2013-01-09 16:28:00,55.9,44.3,30.39,West,267,0.0,0.0,65,0.00,CLR,,0.00,WeatherDisplay:10.37,2013-01-09 21:28:00,
2013-01-09 16:33:00,55.9,44.3,30.38,WSW,245,0.0,0.0,65,0.00,CLR,,0.00,WeatherDisplay:10.37,2013-01-09 21:33:00,
2013-01-09 16:38:00,55.9,44.3,30.38,WSW,245,0.0,0.0,65,0.00,CLR,,0.00,WeatherDisplay:10.37,2013-01-09 21:38:00,
2013-01-09 16:43:00,55.8,44.2,30.38,WSW,245,0.0,0.0,65,0.00,CLR,,0.00,WeatherDisplay:10.37,2013-01-09 21:43:00,
2013-01-09 16:48:00,55.6,44.4,30.38,SSE,155,0.0,0.0,66,0.00,CLR,,0.00,WeatherDisplay:10.37,2013-01-09 21:48:00,
2013-01-09 16:53:00,55.4,44.2,30.38,SSE,155,0.0,0.0,66,0.00,CLR,,0.00,WeatherDisplay:10.37,2013-01-09 21:53:00,
2013-01-09 16:58:00,55.0,43.9,30.38,South,177,0.4,1.8,66,0.00,CLR,,0.00,WeatherDisplay:10.37,2013-01-09 21:58:00,
2013-01-09 17:03:00,54.7,43.5,30.38,SSW,199,0.0,0.0,66,0.00,CLR,,0.00,WeatherDisplay:10.37,2013-01-09 22:03:00,
2013-01-09 17:08:00,54.3,43.6,30.38,SSW,199,0.0,0.0,67,0.00,CLR,,0.00,WeatherDisplay:10.37,2013-01-09 22:08:00,
2013-01-09 17:13:00,54.0,43.2,30.38,West,267,0.0,0.0,67,0.00,CLR,,0.00,WeatherDisplay:10.37,2013-01-09 22:13:00,
2013-01-09 17:18:00,53.4,43.1,30.39,SSW,199,0.0,0.0,68,0.00,CLR,,0.00,WeatherDisplay:10.37,2013-01-09 22:18:00,
2013-01-09 17:23:00,53.2,42.9,30.39,WSW,245,0.0,1.1,68,0.00,CLR,,0.00,WeatherDisplay:10.37,2013-01-09 22:23:00,
2013-01-09 17:28:00,52.7,42.8,30.39,WSW,245,0.0,0.0,69,0.00,CLR,,0.00,WeatherDisplay:10.37,2013-01-09 22:28:00,
2013-01-09 17:33:00,52.3,42.5,30.39,West,267,0.0,0.0,69,0.00,CLR,,0.00,WeatherDisplay:10.37,2013-01-09 22:33:00,
2013-01-09 17:38:00,52.0,42.5,30.39,West,267,0.0,0.0,70,0.00,CLR,,0.00,WeatherDisplay:10.37,2013-01-09 22:38:00,
2013-01-09 17:43:00,51.6,42.2,30.39,West,267,0.0,0.0,70,0.00,CLR,,0.00,WeatherDisplay:10.37,2013-01-09 22:43:00,
2013-01-09 17:48:00,51.1,42.0,30.40,West,267,0.0,0.0,71,0.00,CLR,,0.00,WeatherDisplay:10.37,2013-01-09 22:48:00,
2013-01-09 17:53:00,50.7,42.0,30.40,West,267,0.0,0.0,72,0.00,CLR,,0.00,WeatherDisplay:10.37,2013-01-09 22:53:00,
2013-01-09 17:58:00,50.4,41.7,30.40,West,267,0.0,0.0,72,0.00,CLR,,0.00,WeatherDisplay:10.37,2013-01-09 22:58:00,
2013-01-09 18:03:00,50.0,41.7,30.40,West,267,0.0,0.0,73,0.00,CLR,,0.00,WeatherDisplay:10.37,2013-01-09 23:03:00,
2013-01-09 18:08:00,49.8,41.5,30.41,West,267,0.0,0.0,73,0.00,CLR,,0.00,WeatherDisplay:10.37,2013-01-09 23:08:00,
2013-01-09 18:13:00,49.3,41.3,30.41,West,267,0.0,0.0,74,0.00,CLR,,0.00,WeatherDisplay:10.37,2013-01-09 23:13:00,
2013-01-09 18:18:00,48.9,41.0,30.41,West,267,0.0,0.0,74,0.00,CLR,,0.00,WeatherDisplay:10.37,2013-01-09 23:18:00,
2013-01-09 18:23:00,48.7,41.2,30.41,West,267,0.0,0.0,75,0.00,CLR,,0.00,WeatherDisplay:10.37,2013-01-09 23:23:00,
2013-01-09 18:28:00,48.7,41.2,30.41,West,267,0.0,0.0,75,0.00,CLR,,0.00,WeatherDisplay:10.37,2013-01-09 23:28:00,
2013-01-09 18:33:00,48.7,41.5,30.41,West,267,0.0,0.0,76,0.00,CLR,,0.00,WeatherDisplay:10.37,2013-01-09 23:33:00,
2013-01-09 18:38:00,48.6,41.3,30.41,West,267,0.0,0.0,76,0.00,CLR,,0.00,WeatherDisplay:10.37,2013-01-09 23:38:00,
2013-01-09 18:43:00,48.2,41.3,30.41,West,267,0.0,0.0,77,0.00,CLR,,0.00,WeatherDisplay:10.37,2013-01-09 23:43:00,
2013-01-09 18:48:00,48.0,41.2,30.42,West,267,0.0,0.0,77,0.00,CLR,,0.00,WeatherDisplay:10.37,2013-01-09 23:48:00,
2013-01-09 18:53:00,47.8,41.0,30.42,West,267,0.0,0.0,77,0.00,CLR,,0.00,WeatherDisplay:10.37,2013-01-09 23:53:00,
2013-01-09 18:58:00,47.5,40.6,30.42,West,267,0.0,0.0,77,0.00,CLR,,0.00,WeatherDisplay:10.37,2013-01-09 23:58:00,
2013-01-09 19:03:00,47.5,41.0,30.42,West,267,0.0,0.0,78,0.00,CLR,,0.00,WeatherDisplay:10.37,2013-01-10 00:03:00,
2013-01-09 19:08:00,47.5,41.3,30.42,West,267,0.0,0.0,79,0.00,CLR,,0.00,WeatherDisplay:10.37,2013-01-10 00:08:00,
2013-01-09 19:13:00,47.5,41.3,30.42,West,267,0.0,0.0,79,0.00,CLR,,0.00,WeatherDisplay:10.37,2013-01-10 00:13:00,
2013-01-09 19:18:00,47.3,40.8,30.43,West,267,0.0,0.0,78,0.00,CLR,,0.00,WeatherDisplay:10.37,2013-01-10 00:18:00,
2013-01-09 19:23:00,47.3,40.8,30.43,West,267,0.0,0.0,78,0.00,CLR,,0.00,WeatherDisplay:10.37,2013-01-10 00:23:00,
2013-01-09 19:28:00,47.1,40.6,30.43,West,267,0.0,0.0,78,0.00,CLR,,0.00,WeatherDisplay:10.37,2013-01-10 00:28:00,
2013-01-09 19:33:00,47.1,40.9,30.43,West,267,0.0,0.0,79,0.00,CLR,,0.00,WeatherDisplay:10.37,2013-01-10 00:33:00,
2013-01-09 19:38:00,46.9,40.8,30.43,West,267,0.0,0.0,79,0.00,CLR,,0.00,WeatherDisplay:10.37,2013-01-10 00:38:00,
2013-01-09 19:43:00,46.9,40.8,30.43,West,267,0.0,0.0,79,0.00,CLR,,0.00,WeatherDisplay:10.37,2013-01-10 00:43:00,
2013-01-09 19:48:00,46.8,40.9,30.44,West,267,0.0,0.0,80,0.00,CLR,,0.00,WeatherDisplay:10.37,2013-01-10 00:48:00,
2013-01-09 19:53:00,46.8,40.9,30.44,WNW,289,0.0,0.0,80,0.00,CLR,,0.00,WeatherDisplay:10.37,2013-01-10 00:53:00,
2013-01-09 19:58:00,46.6,40.7,30.44,WNW,289,0.0,0.0,80,0.00,CLR,,0.00,WeatherDisplay:10.37,2013-01-10 00:58:00,
2013-01-09 20:03:00,46.6,40.7,30.44,WNW,289,0.0,0.0,80,0.00,CLR,,0.00,WeatherDisplay:10.37,2013-01-10 01:03:00,
2013-01-09 20:08:00,46.6,40.7,30.44,WNW,289,0.0,0.0,80,0.00,CLR,,0.00,WeatherDisplay:10.37,2013-01-10 01:08:00,
2013-01-09 20:13:00,46.6,40.7,30.44,WNW,289,0.0,0.0,80,0.00,CLR,,0.00,WeatherDisplay:10.37,2013-01-10 01:13:00,
2013-01-09 20:18:00,46.6,41.1,30.44,WNW,289,0.0,0.0,81,0.00,CLR,,0.00,WeatherDisplay:10.37,2013-01-10 01:18:00,
2013-01-09 20:23:00,46.6,41.1,30.44,WNW,289,0.0,0.0,81,0.00,CLR,,0.00,WeatherDisplay:10.37,2013-01-10 01:23:00,
2013-01-09 20:28:00,46.8,41.2,30.44,NW,312,0.0,0.0,81,0.00,CLR,,0.00,WeatherDisplay:10.37,2013-01-10 01:28:00,
2013-01-09 20:33:00,46.8,41.2,30.44,NW,312,0.0,0.0,81,0.00,CLR,,0.00,WeatherDisplay:10.37,2013-01-10 01:33:00,
2013-01-09 20:38:00,47.1,41.6,30.44,NNW,335,0.0,0.0,81,0.00,CLR,,0.00,WeatherDisplay:10.37,2013-01-10 01:38:00,
2013-01-09 20:43:00,47.1,41.6,30.45,North,357,0.0,0.0,81,0.00,CLR,,0.00,WeatherDisplay:10.37,2013-01-10 01:43:00,
2013-01-09 20:48:00,47.1,41.6,30.45,North,357,0.0,0.0,81,0.00,CLR,,0.00,WeatherDisplay:10.37,2013-01-10 01:48:00,
2013-01-09 20:53:00,47.5,41.9,30.45,North,357,0.0,0.0,81,0.00,CLR,,0.00,WeatherDisplay:10.37,2013-01-10 01:53:00,
2013-01-09 20:58:00,47.7,41.8,30.45,North,357,0.0,0.0,80,0.00,CLR,,0.00,WeatherDisplay:10.37,2013-01-10 01:58:00,
2013-01-09 21:03:00,47.8,42.0,30.45,NE,42,1.6,1.6,80,0.00,CLR,,0.00,WeatherDisplay:10.37,2013-01-10 02:03:00,
2013-01-09 21:09:00,48.0,42.1,30.45,North,357,1.6,1.6,80,0.00,CLR,,0.00,WeatherDisplay:10.37,2013-01-10 02:09:00,
2013-01-09 21:14:00,48.0,42.1,30.45,North,357,2.6,3.5,80,0.00,CLR,,0.00,WeatherDisplay:10.37,2013-01-10 02:14:00,
2013-01-09 21:19:00,48.0,41.8,30.45,North,357,1.9,2.3,79,0.00,CLR,,0.00,WeatherDisplay:10.37,2013-01-10 02:19:00,
2013-01-09 21:24:00,47.8,41.6,30.45,North,357,2.0,2.3,79,0.00,CLR,,0.00,WeatherDisplay:10.37,2013-01-10 02:24:00,
2013-01-09 21:29:00,47.5,41.3,30.46,NNE,19,2.1,3.1,79,0.00,CLR,,0.00,WeatherDisplay:10.37,2013-01-10 02:29:00,
2013-01-09 21:34:00,47.3,41.1,30.45,North,357,2.5,2.5,79,0.00,CLR,,0.00,WeatherDisplay:10.37,2013-01-10 02:34:00,
2013-01-09 21:39:00,47.1,40.9,30.46,NE,42,1.6,2.3,79,0.00,CLR,,0.00,WeatherDisplay:10.37,2013-01-10 02:39:00,
2013-01-09 21:44:00,46.8,40.6,30.46,NNE,19,0.0,0.0,79,0.00,CLR,,0.00,WeatherDisplay:10.37,2013-01-10 02:44:00,
2013-01-09 21:49:00,46.6,40.4,30.46,North,357,2.5,2.5,79,0.00,CLR,,0.00,WeatherDisplay:10.37,2013-01-10 02:49:00,
2013-01-09 21:54:00,46.6,40.4,30.46,NNE,19,0.9,2.3,79,0.00,CLR,,0.00,WeatherDisplay:10.37,2013-01-10 02:54:00,
2013-01-09 21:59:00,46.2,40.1,30.47,NE,42,0.4,1.1,79,0.00,CLR,,0.00,WeatherDisplay:10.37,2013-01-10 02:59:00,
2013-01-09 22:04:00,46.2,40.1,30.46,NE,42,2.0,2.3,79,0.00,CLR,,0.00,WeatherDisplay:10.37,2013-01-10 03:04:00,
2013-01-09 22:09:00,46.2,40.1,30.45,NNE,19,0.7,1.1,79,0.00,CLR,,0.00,WeatherDisplay:10.37,2013-01-10 03:09:00,
2013-01-09 22:14:00,46.0,39.9,30.46,NE,42,0.0,0.0,79,0.00,CLR,,0.00,WeatherDisplay:10.37,2013-01-10 03:14:00,
2013-01-09 22:19:00,46.0,39.9,30.45,NNE,19,2.7,2.7,79,0.00,CLR,,0.00,WeatherDisplay:10.37,2013-01-10 03:19:00,
2013-01-09 22:24:00,45.7,39.5,30.46,East,87,0.0,0.0,79,0.00,CLR,,0.00,WeatherDisplay:10.37,2013-01-10 03:24:00,
2013-01-09 22:29:00,45.7,39.5,30.46,NNE,19,2.3,2.3,79,0.00,CLR,,0.00,WeatherDisplay:10.37,2013-01-10 03:29:00,
2013-01-09 22:34:00,45.7,39.5,30.46,NNE,19,1.1,2.3,79,0.00,CLR,,0.00,WeatherDisplay:10.37,2013-01-10 03:34:00,
2013-01-09 22:39:00,45.7,39.5,30.45,ENE,65,0.0,0.0,79,0.00,CLR,,0.00,WeatherDisplay:10.37,2013-01-10 03:39:00,
2013-01-09 22:44:00,45.3,39.2,30.45,NE,42,0.5,3.1,79,0.00,CLR,,0.00,WeatherDisplay:10.37,2013-01-10 03:44:00,
2013-01-09 22:49:00,45.3,39.2,30.45,NE,42,1.1,3.5,79,0.00,CLR,,0.00,WeatherDisplay:10.37,2013-01-10 03:49:00,
2013-01-09 22:54:00,45.3,39.2,30.45,ENE,65,0.0,0.0,79,0.00,CLR,,0.00,WeatherDisplay:10.37,2013-01-10 03:54:00,
2013-01-09 22:59:00,45.1,39.0,30.45,NE,42,0.2,2.0,79,0.00,CLR,,0.00,WeatherDisplay:10.37,2013-01-10 03:59:00,
2013-01-09 23:04:00,45.0,38.8,30.46,East,87,0.0,0.0,79,0.00,CLR,,0.00,WeatherDisplay:10.37,2013-01-10 04:04:00,
2013-01-09 23:09:00,44.8,38.7,30.46,NE,42,0.0,0.0,79,0.00,CLR,,0.00,WeatherDisplay:10.37,2013-01-10 04:09:00,
2013-01-09 23:14:00,44.6,38.5,30.46,ENE,65,0.0,0.0,79,0.00,CLR,,0.00,WeatherDisplay:10.37,2013-01-10 04:14:00,
2013-01-09 23:19:00,44.6,38.5,30.46,NE,42,0.0,2.3,79,0.00,CLR,,0.00,WeatherDisplay:10.37,2013-01-10 04:19:00,
2013-01-09 23:24:00,44.6,38.2,30.46,NE,42,2.9,3.5,78,0.00,CLR,,0.00,WeatherDisplay:10.37,2013-01-10 04:24:00,
2013-01-09 23:29:00,44.8,38.3,30.46,NE,42,1.4,1.4,78,0.00,CLR,,0.00,WeatherDisplay:10.37,2013-01-10 04:29:00,
2013-01-09 23:34:00,44.8,38.3,30.46,ENE,65,0.8,1.1,78,0.00,CLR,,0.00,WeatherDisplay:10.37,2013-01-10 04:34:00,
2013-01-09 23:39:00,44.8,38.0,30.46,NE,42,0.0,0.0,77,0.00,CLR,,0.00,WeatherDisplay:10.37,2013-01-10 04:39:00,
2013-01-09 23:44:00,45.0,38.2,30.46,NE,42,0.4,1.3,77,0.00,CLR,,0.00,WeatherDisplay:10.37,2013-01-10 04:44:00,
2013-01-09 23:49:00,44.8,38.0,30.46,ENE,65,0.0,1.1,77,0.00,CLR,,0.00,WeatherDisplay:10.37,2013-01-10 04:49:00,
2013-01-09 23:54:00,45.0,37.8,30.46,ENE,65,2.9,3.5,76,0.00,CLR,,0.00,WeatherDisplay:10.37,2013-01-10 04:54:00,
2013-01-09 23:59:00,45.0,37.8,30.46,NNE,19,1.1,1.1,76,0.00,CLR,,0.00,WeatherDisplay:10.37,2013-01-10 04:59:00,